Vancouver, WA

12:16 PM PST on December 08, 2016 (GMT -0800)
Pearson

Weather History for KVUO - September, 2012

Change the Weather History Date:

Tuesday, September 11, 2012

  Actual Average Record
Temperature  
Mean Temperature 60 °F 65 °F  
Max Temperature 72 °F 78 °F 96 °F (2009)
Min Temperature 47 °F 53 °F 35 °F (1988)
Degree Days  
Heating Degree Days 5    
Month to date heating degree days 17  
Since 1 July heating degree days 32  
Cooling Degree Days 0    
Month to date cooling degree days 30  
Year to date cooling degree days 377  
Growing Degree Days 8 (Base 50)    
Moisture  
Dew Point 42 °F    
Average Humidity 59    
Maximum Humidity 86    
Minimum Humidity 31    
Precipitation  
Precipitation 0.00 in 0.04 in 0.59 in (1927)
Month to date precipitation 0.04 0.35  
Year to date precipitation 26.73 22.18  
Snow  
Snow 0.00 in - - ()
Month to date snowfall 0.0  
Snow Depth 0.00 in    
Sea Level Pressure  
Sea Level Pressure 30.22 in    
Wind  
Wind Speed 6 mph (NW)    
Max Wind Speed 16 mph    
Max Gust Speed 24 mph    
Visibility 10 miles    
Events      
T = Trace of Precipitation, MM = Missing Value Source: NWS Daily Summary

Daily Weather History Graph

Daily Weather History Graph

Search for Another Location

Airport or City:

Trip Planner

Search our weather history database for the weather conditions in past years. The results will help you decide how hot, cold, wet, or windy it might be!

Date:

Astronomy

Sep. 11, 2012 Rise Set
Actual Time 6:44 AM PDT 7:28 PM PDT
Civil Twilight 6:14 AM PDT 7:58 PM PDT
Nautical Twilight 5:39 AM PDT 8:33 PM PDT
Astronomical Twilight 5:01 AM PDT 9:10 PM PDT
Moon 1:56 AM PDT (9/11) 4:51 PM PDT (9/11)
Length of Visible Light 13h 43m
Length of Day
12h 43m
Waning Crescent, 20% of the Moon is Illuminated
Sep 11
Waning Crescent
Sep 15
New
Sep 22
First Quarter
Sep 29
Full
Oct 8
Last Quarter

Hourly Weather History & Observations

Time (PDT) Temp. Dew Point Humidity Pressure Visibility Wind Dir Wind Speed Gust Speed Precip Events Conditions
12:53 AM 53.1 °F 44.1 °F 71% 30.23 in 10.0 mi NW 4.6 mph - N/A   Clear
1:53 AM 52.0 °F 43.0 °F 71% 30.23 in 10.0 mi NW 4.6 mph - N/A   Clear
2:53 AM 52.0 °F 43.0 °F 71% 30.23 in 10.0 mi Calm Calm - N/A   Clear
3:53 AM 51.1 °F 44.1 °F 77% 30.23 in 10.0 mi NNW 3.5 mph - N/A   Clear
4:53 AM 50.0 °F 43.0 °F 77% 30.24 in 10.0 mi Calm Calm - N/A   Clear
5:53 AM 48.9 °F 43.0 °F 80% 30.25 in 10.0 mi Calm Calm - N/A   Clear
6:53 AM 46.9 °F 42.1 °F 83% 30.25 in 10.0 mi Calm Calm - N/A   Clear
7:53 AM 48.9 °F 43.0 °F 80% 30.27 in 10.0 mi North 4.6 mph - N/A   Clear
8:53 AM 51.1 °F 43.0 °F 74% 30.27 in 10.0 mi Calm Calm - N/A   Clear
9:53 AM 55.0 °F 43.0 °F 64% 30.27 in 10.0 mi Calm Calm - N/A   Clear
10:53 AM 59.0 °F 43.0 °F 55% 30.25 in 10.0 mi Variable 3.5 mph - N/A   Clear
11:53 AM 62.1 °F 44.1 °F 52% 30.24 in 10.0 mi NW 8.1 mph - N/A   Clear
12:53 PM 64.9 °F 42.1 °F 43% 30.23 in 10.0 mi NW 9.2 mph 17.3 mph N/A   Clear
1:53 PM 68.0 °F 41.0 °F 37% 30.21 in 10.0 mi WNW 12.7 mph - N/A   Clear
2:53 PM 70.0 °F 42.1 °F 36% 30.20 in 10.0 mi NNW 10.4 mph 17.3 mph N/A   Clear
4:53 PM 71.1 °F 39.9 °F 32% 30.17 in 10.0 mi NNW 9.2 mph 19.6 mph N/A   Clear
5:53 PM 69.1 °F 39.9 °F 35% 30.17 in 10.0 mi NNW 13.8 mph 21.9 mph N/A   Clear
6:53 PM 68.0 °F 39.9 °F 36% 30.17 in 10.0 mi NW 10.4 mph 19.6 mph N/A   Clear
7:53 PM 64.9 °F 39.0 °F 39% 30.17 in 10.0 mi NW 8.1 mph - N/A   Clear
8:53 PM 63.0 °F 39.0 °F 41% 30.19 in 10.0 mi NW 5.8 mph - N/A   Clear
9:53 PM 61.0 °F 39.0 °F 44% 30.20 in 10.0 mi NW 6.9 mph - N/A   Clear
10:53 PM 59.0 °F 39.0 °F 48% 30.20 in 10.0 mi WNW 5.8 mph - N/A   Clear
11:53 PM 57.9 °F 39.0 °F 49% 30.20 in 10.0 mi NW 6.9 mph - N/A   Clear